Zurück zum Katalog

ANIK F2

AktivKommunikationGEO
NORAD 28378·PAYLOAD·🇨🇦 Canada

Gestartet Jul 18, 2004 von Guiana Space Centre

Loading…

TLE

AktuellSource: CelesTrak SupGP

Epoche: Sep 14, 2026, 07:59 UTC

1 28378C 04027A   26257.33333333  .00000040  00000+0  00000+0 0  2576
2 28378   3.5121  78.2621 0003121  80.2639 203.6897  1.00271759    11

Verfolge ANIK F2 in Echtzeit mit AllMySat

Download on the App Store